sat.trackr.live / text

‹ back to catalog

STARLINK-1273

NORAD 45367 · 2020-019H

PAYLOAD ACTIVE UNKNOWN

§ Identity

Operator
Country
US
Launch date
2020-03-18
Launch site
AFETR
Launch vehicle
Mass (kg)
RCS (m²)

Purposes: comms

External: N2YO · Heavens-Above · Gunter

§ Orbital elements

Epoch: 2026-09-12T15:59:23.122176Z

Period
91.81 min
Inclination
53.0394°
Eccentricity
0.0002127
Mean motion
15.68476938 rev/d
Perigee alt
361.8 km
Apogee alt
364.7 km
Semi-major
6,741.4 km
B*
3.6722e-4
RAAN
327.4747°
Arg perigee
23.8464°
Mean anomaly
336.2650°
Rev number
35,903

§ Raw data

STARLINK-12731 45367U 20019H   26255.66623984  .00041924  00000+0  36722-3 0  99932 45367  53.0394 327.4747 0002127  23.8464 336.2650 15.68476938359036

JSON: /api/v1/satellites/45367 · /tle

For live sub-satellite position, see the globe view (requires WebGL).

§ Visibility from observer

Set your observer location to see the next 7 days of passes ≥ 10°. The values pass through the URL so the page stays shareable.

No JS? Fill the form by hand. The geolocation button needs JavaScript.